Weather History for KLWS - March, 2014

Change the Weather History Date:

Friday, March 28, 2014

  Actual Average Record
Temperature  
Mean Temperature 47 °F 48 °F  
Max Temperature 53 °F 58 °F 74 °F (1930)
Min Temperature 40 °F 38 °F 19 °F (1975)
Degree Days  
Heating Degree Days 18 17  
Month to date heating degree days 543 563  
Since 1 July heating degree days 4704 4418  
Cooling Degree Days 0 0  
Month to date cooling degree days 0 0  
Year to date cooling degree days 0 0  
Moisture  
Dew Point 36 °F    
Average Humidity 68    
Maximum Humidity 86    
Minimum Humidity 50    
Precipitation  
Precipitation 0.45 in 0.04 in 0.63 in (2009)
Month to date precipitation 1.19 1.03  
Year to date precipitation 3.61 2.89  
Snow  
Snow 0.00 in 0.00 in 0.40 in (1949)
Month to date snowfall 0.6 0.7  
Since 1 July snowfall 16.5 10.5  
Snow Depth 0.00 in    
Sea Level Pressure  
Sea Level Pressure 29.90 in    
Wind  
Wind Speed 7 mph (ESE)    
Max Wind Speed 17 mph    
Max Gust Speed 20 mph    
Visibility 10 miles    
Events Rain    
T = Trace of Precipitation, MM = Missing Value Source: NWS Daily Summary

Daily Weather History Graph

Daily Weather History Graph

Search for Another Location

Airport or City:

Trip Planner

Search our weather history database for the weather conditions in past years. The results will help you decide how hot, cold, wet, or windy it might be!

Date:

Astronomy

Mar. 28, 2014 Rise Set
Actual Time 6:35 AM PDT 7:11 PM PDT
Civil Twilight 6:05 AM PDT 7:41 PM PDT
Nautical Twilight 5:29 AM PDT 8:17 PM PDT
Astronomical Twilight 4:51 AM PDT 8:55 PM PDT
Moon 5:16 AM PDT (3/28) 5:07 PM PDT (3/28)
Length of Visible Light 13h 36m
Length of Day
12h 36m
Waning Crescent, 5% of the Moon is Illuminated
Mar 28
Waning Crescent
Mar 30
New
Apr 7
First Quarter
Apr 15
Full
Apr 22
Last Quarter

Hourly Weather History & Observations

Time (PDT) Temp. Windchill Dew Point Humidity Pressure Visibility Wind Dir Wind Speed Gust Speed Precip Events Conditions
12:56 AM 46.0 °F 40.6 °F 33.1 °F 61% 29.92 in 10.0 mi South 11.5 mph - N/A   Mostly Cloudy
1:56 AM 45.0 °F 40.6 °F 33.1 °F 63% 29.94 in 10.0 mi South 8.1 mph - N/A   Overcast
2:56 AM 43.0 °F 38.8 °F 33.1 °F 68% 29.95 in 10.0 mi South 6.9 mph - N/A   Clear
3:56 AM 46.0 °F 40.2 °F 32.0 °F 58% 29.95 in 10.0 mi South 12.7 mph - N/A   Mostly Cloudy
4:56 AM 43.0 °F 40.3 °F 32.0 °F 65% 29.96 in 10.0 mi South 4.6 mph - N/A   Clear
5:56 AM 43.0 °F - 32.0 °F 65% 29.96 in 10.0 mi Calm Calm - N/A   Clear
6:56 AM 39.9 °F 35.1 °F 33.1 °F 77% 29.97 in 10.0 mi ENE 6.9 mph - N/A   Clear
7:56 AM 41.0 °F 37.1 °F 34.0 °F 76% 29.96 in 10.0 mi SE 5.8 mph - N/A   Clear
8:56 AM 45.0 °F 41.2 °F 35.1 °F 68% 29.95 in 10.0 mi ENE 6.9 mph - N/A   Partly Cloudy
9:56 AM 46.9 °F - 35.1 °F 63% 29.95 in 10.0 mi East 8.1 mph - N/A   Clear
10:56 AM 48.9 °F - 35.1 °F 59% 29.94 in 10.0 mi East 6.9 mph - N/A   Overcast
11:56 AM 51.1 °F - 35.1 °F 54% 29.92 in 10.0 mi East 4.6 mph - N/A   Overcast
12:56 PM 52.0 °F - 35.1 °F 53% 29.91 in 10.0 mi East 9.2 mph - N/A   Overcast
1:56 PM 53.1 °F - 35.1 °F 50% 29.89 in 10.0 mi Calm Calm - N/A   Overcast
2:56 PM 53.1 °F - 36.0 °F 52% 29.87 in 10.0 mi ESE 3.5 mph - N/A   Overcast
3:56 PM 53.1 °F - 37.9 °F 57% 29.87 in 10.0 mi SW 11.5 mph - N/A   Overcast
4:56 PM 51.1 °F - 37.0 °F 59% 29.86 in 10.0 mi SSW 10.4 mph - N/A   Overcast
5:56 PM 51.1 °F - 37.9 °F 61% 29.85 in 10.0 mi South 11.5 mph - 0.00 in   Overcast
6:56 PM 48.0 °F - 41.0 °F 77% 29.85 in 10.0 mi East 11.5 mph - 0.00 in Rain Light Rain
7:56 PM 46.9 °F - 42.1 °F 83% 29.85 in 9.0 mi ENE 6.9 mph - 0.10 in Rain Light Rain
8:56 PM 46.9 °F - 42.1 °F 83% 29.85 in 6.0 mi ENE 4.6 mph - 0.09 in Rain Light Rain
9:56 PM 46.0 °F 43.1 °F 42.1 °F 86% 29.86 in 5.0 mi ESE 5.8 mph - 0.08 in Rain Rain
10:56 PM 46.0 °F 42.5 °F 42.1 °F 86% 29.85 in 8.0 mi ESE 6.9 mph - 0.16 in Rain Light Rain
11:56 PM 46.0 °F 41.9 °F 42.1 °F 86% 29.83 in 10.0 mi NE 8.1 mph - 0.01 in Rain Light Rain